Weather in Ust-Naryk

Russia / Kemerovo Oblast     54°19′48″N   87°26′38″E
temp.,
°C
wind,
m/s
gust,
m/s
humid.,
%
clouds,
%
prec.,
mm/h
press.,
hPa
HPBL,
m
20 april, tue
tue2001:00−8n267997 0.0 1024563
04:00−9n137998 0.0 1024316
07:00−8nne137370 0.0 1025431
10:00−5nnw2455100 0.1 10261555
13:00−3wnw3441100 0.1 10252056
16:00−2nw3440100 0.0 10252052
19:00−3nnw345684 0.1 10261249
22:00−7e11885 0.0 102716
21 april, wed
wed2101:00−7se118841 0.0 102721
04:00−8ese119020 0.0 102627
07:00−7se1276100 0.0 1026129
10:00−3sse2356100 0.0 1026870
13:000sse1243100 0.0 10241613
16:00+1e1140100 0.0 10231669
19:000ne124917 0.0 1024181
22:00−5n24815 0.0 102669
22 april, thu
thu2201:00−6n13885 0.0 102769
04:00−6nne119233 0.0 102936
07:00−5nne127828 0.0 103189
10:00+1nne234565 0.0 1033690
13:00+4ne3438100 0.0 10342290
16:00+4ne3444100 0.4 10351783
19:00+2nne3758100 0.8 1038395
22:00−2n38795 0.0 1041159
23 april, fri
fri2301:00−4n25835 0.0 1041107
04:00−4n38825 0.0 1041183
07:00−3n38773 0.0 1041232
10:00+4nne46486 0.0 10401244
13:00+7ene354263 0.0 10381796
16:00+7ne474398 0.0 10372048
19:00+5nne3763100 0.0 1037238
22:00+1nne41072100 0.0 1038282
24 april, sat
sat2401:000n388197 0.0 1036179
04:00−1n258622 0.0 103490
07:00−1nne268410 0.0 1033184
10:00+5e11598 0.0 1032901
13:00+7wsw1152100 0.1 10311465
16:00+7n1155100 0.1 10301214
19:00+5n1170100 0.1 1031643
22:00+2nne008933 0.0 103110